SCP
0 0 0 0 0 0 0 0 0 0 0 0 0 0 0 0 0 0 0 0 0 0 0 0 0 0 0 0 0 0 0 0 0 0 0 0 0 0 0 0 0 0 0 0
0 0 0 0 0 0 0 0 0 0 0 0 0 0 0 0 0 0 0 0 0 0 0 0 0 0 0 0 0 0 0 0 0 0 0 0 0 0 0 0 0 0 0 0
0 0 0 0 0 0 0 0 0 0 0 0 0 0 0 0 0 0 0 0 0 0 0 0 0 0 0 0 0 0 0 0 0 0 0 0 0 0 0 0 0 0 0 0
0 0 0 0 0 0 0 0 0 0 0 0 0 0 0 0 0 0 0 0 0 0 0 0 0 0 0 0 0 0 0 0 0 0 0 0 0 0 0 0 0 0 0 0
0 0 0 0 0 0 0 0 0 0 0 0 0 0 0 0 0 0 0 0 0 0 0 0 0 0 0 0 0 0 0 0 0 0 0 0 0 0 0 0 0 0 0 0
0 0 0 0 0 0 0 0 0 0 0 0 0 0 0 0 0 0 0 0 0 0 0 0 0 0 0 0 0 0 0 0 0 0 0 0 0 0 0 0 0 0 0 0
0 0 0 0 0 0 0 0 0 0 0 0 0 0 0 0 0 0 0 0 0 0 0 0 0 0 0 0 0 0 0 0 0 0 0 0 0 0 0 0 0 0 0 0
0 0 0 0 0 0 0 0 0 0 0 0 0 0 0 0 0 0 0 0 0 0 0 0 0 0 0 0 0 0 0 0 0 0 0 0 0 0 0 0 0 0 0 0
0 0 0 0 0 0 0 0 0 0 0 0 0 0 0 0 0 0 0 0 0 0 0 0 0 0 0 0 0 0 0 0 0 0 0 0 0 0 0 0 0 0 0 0
0 0 0 0 0 0 0 0 0 0 0 0 0 0 0 0 0 0 0 0 0 0 0 0 0 0 0 0 0 0 0 0 0 0 0 0 0 0 0 0 0 0 0 0
0 0 0 0 0 0 0 0 0 0 0 0 0 0 0 0 0 0 0 0 0 0 0 0 0 0 0 0 0 0 0 0 0 0 0 0 0 0 0 0 0 0 0 0
0 0 0 0 0 0 0 0 0 0 0 0 0 0 0 0 0 0 0 0 0 0 0 0 0 0 0 0 0 0 0 0 0 0 0 0 0 0 0 0 0 0 0 0
0 0 0 0 0 0 0 0 0 0 0 0 0 0 0 0 0 0 0 0 0 0 0 0 0 0 0 0 0 0 0 0 0 0 0 0 0 0 0 0 0 0 0 0
0 0 0 0 0 0 0 0 0 0 0 0 0 0 0 0 0 0 0 0 0 0 0 0 0 0 0 0 0 0 0 0 0 0 0 0 0 0 0 0 0 0 0 0
0 0 0 0 0 0 0 0 0 0 0 0 0 0 0 0 0 0 0 0 0 0 0 0 0 0 0 0 0 0 0 0 0 0 0 0 0 0 0 0 0 0 0 0
0 0 0 0 0 0 0 0 0 0 0 0 0 0 0 0 0 0 0 0 0 0 0 0 0 0 0 0 0 0 0 0 0 0 0 0 0 0 0 0 0 0 0 0
0 0 0 0 0 0 0 0 0 0 0 0 0 0 0 0 0 0 0 0 0 0 0 0 0 0 0 0 0 0 0 0 0 0 0 0 0 0 0 0 0 0 0 0
0 0 0 0 0 0 0 0 0 0 0 0 0 0 0 0 0 0 0 0 0 0 0 0 0 0 0 0 0 0 0 0 0 0 0 0 0 0 0 0 0 0 0 0
0 0 0 0 0 0 0 0 0 0 0 0 0 0 0 0 0 0 0 0 0 0 0 0 0 0 0 0 0 0 0 0 0 0 0 0 0 0 0 0 0 0 0 0
0 0 0 0 0 0 0 0 0 0 0 0 0 0 0 0 0 0 0 0 0 0 0 0 0 0 0 0 0 0 0 0 0 0 0 0 0 0 0 0 0 0 0 0
0 0 0 0 0 0 0 0 0 0 0 0 0 0 0 0 0 0 0 0 0 0 0 0 0 0 0 0 0 0 0 0 0 0 0 0 0 0 0 0 0 0 0 0
0 0 0 0 0 0 0 0 0 0 0 0 0 0 0 0 0 0 0 0 0 0 0 0 0 0 0 0 0 0 0 0 0 0 0 0 0 0 0 0 0 0 0 0
0 0 0 0 0 0 0 0 0 0 0 0 0 0 0 0 0 0 0 0 0 0 0 0 0 0 0 0 0 0 0 0 0 0 0 0 0 0 0 0 0 0 0 0
0 0 0 0 0 0 0 0 0 0 0 0 0 0 0 0 0 0 0 0 0 0 0 0 0 0 0 0 0 0 0 0 0 0 0 0 0 0 0 0 0 0 0 0
0 0 0 0 0 0 0 0 0 0 0 0 0 0 0 0 0 0 0 0 0 0 0 0 0 0 0 0 0 0 0 0 0 0 0 0 0 0 0 0 0 0 0 0
0 0 0 0 0 0 0 0 0 0 0 0 0 0 0 0 0 0 0 0 0 0 0 0 0 0 0 0 0 0 0 0 0 0 0 0 0 0 0 0 0 0 0 0
Wind_Speed
3 0 6 11 9 9 5 3 1 1 1 5 5 4 4 6 5 5 4 5 5 6 4 5 6 7 7 7 7 6 5 4 3 3 2 2 1 1 1 1 2 3 3 3
3 8 16 13 9 4 2 2 1 1 2 4 3 1 3 6 6 8 8 7 7 6 5 6 6 6 6 6 6 6 6 4 3 2 2 2 2 1 1 1 1 1 2 3
8 11 10 6 4 1 1 3 4 4 2 4 4 3 1 2 3 5 7 7 7 9 9 9 9 7 7 7 7 7 6 5 4 3 3 3 3 3 3 2 1 1 1 2
6 8 5 2 1 3 1 1 5 6 5 0 2 0 4 3 2 4 6 7 9 9 9 9 9 8 8 7 7 6 6 5 4 4 4 4 3 2 1 1 1 2 2 0
5 4 2 2 1 3 3 4 4 4 4 3 2 2 5 2 4 7 9 9 10 10 10 10 10 10 9 9 7 6 6 5 5 5 5 5 3 2 1 1 2 2 3 2
5 3 1 2 1 4 6 6 6 5 5 3 1 2 5 5 8 8 8 9 11 11 10 9 9 8 8 7 7 7 7 5 5 6 5 6 5 3 3 2 2 2 2 2
6 5 2 0 2 2 4 6 5 6 5 2 3 2 8 8 7 10 11 11 12 11 10 9 10 10 9 9 9 8 8 6 6 6 5 5 5 4 4 2 1 1 1 1
2 6 4 2 4 3 2 7 6 3 3 3 3 3 7 5 7 9 10 11 11 11 11 11 12 11 11 11 10 9 8 7 6 6 5 5 5 4 3 3 3 2 1 1
4 6 4 2 2 5 3 2 6 7 2 1 4 5 6 1 6 8 10 10 11 12 12 12 11 11 11 11 11 10 9 7 7 6 5 5 5 4 4 3 2 2 2 2
5 3 4 2 3 1 5 5 5 5 5 1 4 4 5 5 7 9 10 11 11 11 11 11 11 11 10 10 9 9 9 8 7 7 6 5 5 5 4 3 2 2 2 2
3 3 3 2 1 3 2 3 4 4 6 6 4 8 9 12 11 12 13 13 13 13 13 12 10 9 9 9 9 9 8 7 6 6 5 5 5 4 4 3 3 3 2 2
2 4 2 4 5 2 4 5 7 5 4 5 5 9 7 12 12 12 12 12 12 13 12 11 10 9 9 10 9 9 8 7 7 6 6 6 5 4 4 3 3 3 3 3
2 5 3 5 7 3 1 3 5 5 5 4 5 8 4 6 9 10 11 11 10 10 10 10 10 10 10 10 9 9 8 8 7 6 6 5 5 5 4 4 4 4 4 3
4 4 6 8 8 5 4 4 3 6 4 5 7 8 5 7 9 10 10 10 10 11 12 11 11 10 10 10 9 9 8 7 7 7 6 6 6 6 5 5 4 4 4 4
5 2 3 5 6 4 5 6 4 4 7 8 9 8 10 11 11 11 10 10 11 12 13 13 12 11 10 9 8 8 8 7 7 7 7 6 6 5 5 5 5 4 4 5
4 3 1 4 4 3 4 5 6 5 3 5 4 6 7 6 5 6 8 12 12 14 14 14 13 12 12 11 10 9 8 8 7 8 7 6 6 5 5 5 5 4 4 4
2 4 2 4 5 4 4 4 2 0 0 3 3 5 0 3 6 9 9 11 13 14 14 15 14 14 13 12 11 11 9 7 8 7 7 6 6 6 6 5 4 5 5 4
6 4 3 1 2 3 7 3 1 5 5 4 2 1 2 5 6 7 7 10 10 12 13 13 12 11 10 9 9 8 7 8 8 7 7 6 6 6 6 5 5 5 4 5
5 7 4 3 2 5 4 4 3 2 2 5 1 2 2 3 5 2 2 6 10 11 10 10 11 11 10 10 9 8 7 7 7 7 7 7 7 6 6 6 6 5 4 5
4 4 4 3 2 4 4 5 5 3 2 5 3 3 3 6 3 4 4 3 4 5 6 7 7 7 9 9 8 8 8 7 8 8 8 7 6 6 7 7 6 5 5 6
3 3 2 3 2 5 3 6 5 3 4 4 1 3 4 3 3 4 2 1 3 4 5 6 7 7 8 8 9 9 8 8 8 7 6 5 6 6 6 5 5 5 5 5
4 3 2 3 3 6 2 3 2 4 3 2 0 2 3 1 1 1 2 2 2 2 2 5 6 5 5 6 8 7 7 7 5 5 5 5 5 5 5 5 5 5 5 6
4 6 6 6 6 5 2 3 3 3 2 2 0 1 2 2 2 1 2 2 2 3 3 3 5 5 3 4 6 6 6 4 4 4 4 4 4 5 4 5 5 5 5 5
2 3 4 2 3 3 1 1 1 1 1 2 1 2 3 3 1 3 4 3 2 1 1 2 3 4 3 2 3 3 2 3 4 4 4 3 4 4 4 4 4 5 5 6
4 4 4 2 3 1 3 4 4 2 1 1 3 4 5 5 4 4 3 3 2 2 2 3 3 3 2 3 2 2 1 1 1 2 3 3 3 4 4 5 5 6 7 7
2 6 8 7 7 5 4 4 4 4 3 4 6 6 6 7 7 6 5 4 4 4 4 4 4 4 3 4 3 3 2 2 1 2 3 3 3 3 4 5 6 9 10 13
Wind_Direction
277 144 251 247 225 220 220 191 197 222 164 97 111 135 155 167 165 154 175 182 185 167 189 177 149 146 137 130 126 120 113 111 105 96 97 100 100 104 106 147 164 158 147 134
327 267 252 255 261 244 193 159 148 116 132 113 125 160 174 171 176 180 183 181 184 177 171 172 163 153 144 142 135 127 124 129 125 122 132 133 125 112 110 83 86 133 134 136
222 254 266 267 283 40 95 163 172 162 112 76 98 13 305 210 174 177 177 174 183 176 175 171 165 161 154 153 148 142 141 136 128 117 92 73 60 48 42 42 31 17 97 133
252 265 284 309 330 95 64 139 137 134 123 74 107 177 272 222 197 185 181 184 184 181 175 170 166 166 165 163 153 148 143 139 136 122 109 109 110 109 131 134 27 2 10 340
268 285 325 343 351 104 139 106 82 99 105 76 35 101 285 173 196 204 193 188 185 181 180 178 176 172 170 164 158 153 146 143 141 133 128 119 117 136 135 81 45 17 3 8
261 281 212 207 50 113 126 80 51 48 67 50 273 141 266 219 203 195 189 183 181 182 184 183 177 168 166 162 158 153 149 153 151 140 133 133 134 128 102 75 50 20 11 18
311 314 312 161 70 56 88 81 29 3 13 275 268 191 247 234 198 183 181 180 181 180 179 179 175 173 172 170 167 161 156 159 157 148 145 146 145 136 133 141 129 107 45 12
258 291 268 205 168 167 155 131 151 196 236 286 314 263 259 243 190 171 169 172 178 181 184 185 183 177 176 175 170 165 164 163 164 159 160 155 147 142 153 163 163 168 185 205
194 251 271 240 163 140 135 158 160 132 108 18 307 307 314 142 154 161 168 172 181 187 186 187 183 178 175 174 174 171 166 165 169 168 162 159 158 158 170 179 170 181 201 198
165 251 290 300 68 25 158 151 98 111 137 200 290 275 240 210 191 182 181 186 193 189 188 186 183 178 175 171 168 165 163 168 172 169 168 164 169 170 172 168 180 198 213 211
130 164 303 355 195 208 146 142 126 134 153 152 214 257 222 204 197 191 196 195 192 188 187 185 180 172 165 159 159 161 165 166 168 170 167 161 170 171 166 172 192 199 209 213
179 143 220 264 267 243 191 185 149 153 198 166 176 259 240 196 197 194 197 199 194 186 182 175 167 160 158 160 164 166 169 171 176 174 168 170 174 171 176 193 205 200 204 216
150 120 85 343 329 326 259 217 161 144 135 160 176 255 251 191 193 198 196 194 188 175 168 162 160 163 166 166 168 169 173 176 175 168 166 171 179 183 194 206 211 210 214 225
123 130 161 194 221 231 247 249 188 137 158 196 211 228 233 203 198 199 195 187 174 168 164 161 164 169 171 171 171 170 176 175 169 165 169 180 193 198 203 207 211 217 219 225
107 141 226 230 226 215 231 251 241 209 197 192 222 213 222 208 197 192 182 169 161 163 166 168 169 171 172 172 174 173 175 174 168 166 177 194 201 201 202 209 218 225 228 230
95 138 359 307 284 277 284 287 270 254 229 223 212 234 239 200 171 163 162 161 167 171 172 173 172 172 175 177 178 176 178 178 170 175 190 198 196 199 206 215 221 227 234 238
146 131 112 276 300 351 301 274 270 95 55 146 183 240 250 123 155 167 170 169 172 174 174 175 178 180 181 182 178 180 182 177 176 186 195 197 195 202 213 216 213 222 230 232
148 134 144 220 6 249 246 256 53 99 60 48 115 80 131 169 182 166 163 164 170 176 178 180 180 181 182 179 179 178 173 174 183 192 199 200 197 206 212 212 220 227 226 230
147 145 143 148 205 261 293 329 354 107 36 351 15 83 51 64 61 30 208 171 174 177 178 181 184 179 176 178 176 169 178 181 187 197 203 205 201 205 209 216 226 227 224 234
54 101 128 142 170 231 262 307 314 95 13 327 9 56 59 77 93 259 262 193 168 168 170 172 172 170 175 181 166 168 182 186 199 204 205 204 201 203 211 220 226 226 223 234
26 45 125 154 194 251 268 321 6 103 240 285 3 69 66 90 197 246 284 192 157 159 162 160 159 170 186 177 163 173 181 197 205 200 198 199 202 207 215 223 229 230 232 240
170 156 174 138 179 241 288 28 127 196 225 265 82 105 83 53 314 358 89 109 110 122 139 152 157 174 180 167 163 175 195 205 189 182 192 203 211 218 217 221 237 237 232 241
186 182 174 179 210 241 221 185 218 173 172 246 132 37 87 54 1 18 78 100 123 130 141 155 158 154 155 164 163 181 211 196 180 185 203 216 223 229 228 226 241 250 242 241
246 142 122 141 256 251 243 189 215 144 158 250 137 130 121 130 94 65 78 81 71 73 98 109 123 142 161 163 162 188 194 170 170 192 216 228 237 251 254 247 242 246 250 250
215 152 131 149 220 237 288 228 210 178 142 103 94 101 105 102 86 83 76 67 64 54 55 78 102 110 94 74 62 36 42 121 187 233 245 252 250 256 267 265 254 250 246 243
222 171 165 192 199 170 210 219 175 141 131 131 114 86 77 92 93 84 72 57 58 55 58 65 67 73 74 73 51 23 16 35 22 312 301 290 283 277 274 278 287 275 263 267